User: anonymous   Login
Location: NJAA Observatory
(40.6819°N, 74.8979°W)
Time: 04:25:00
(UTC-05:00)
Language:

Meteor 1-28 Rocket - Orbit

View from above orbital plane
View from above orbital plane
View from above satellite
View from above satellite

Ground track
Ground track

The orbit data is extracted from the following two-line orbital elements,

1 10114U 77057B   15028.52768756  .00001880  00000-0  10497-3 0  4553
2 10114 097.2435 243.2180 0016415 115.9848 244.3078 15.14571096 51656
Epoch (UTC): 28 January 2015 12:39:52
Eccentricity: 0.0016415
inclination: 97.2435°
perigee height: 511 km
apogee height: 533 km
right ascension of ascending node: 243.2180°
argument of perigee: 115.9848°
revolutions per day: 15.14571096
mean anomaly at epoch: 244.3078°
orbit number at epoch: 5165

The dashed part of the orbit path shows where the satellite is in the earth's shadow,  

DLR